Погода в Тимофееве

Россия / Калининградская область     54°58′52″N   22°17′54″E
темп.,
°C
ветер,
м/с
пор.,
м/с
влажн.,
%
обл.,
%
осадки,
мм/ч
давл.,
гПа
погр.,
м
31 июля, сб
сб3123:00+15юз310740 0.0 1005228
02:00+14юз412785 0.0 1005297
05:00+14юз411810 0.0 1005260
08:00+19юз59645 0.0 1006622
11:00+23зюз57465 0.0 10061264
14:00+26юз574443 0.0 10052126
17:00+27ююз594579 0.0 10042041
20:00+18ююз22948 6.2 100438
1 августа, вс
вс123:00+16зюз229451 0.1 100536
02:00+15ююз37950 0.1 1005125
05:00+14юз513910 0.0 1005370
08:00+17юз5118164 0.0 1007570
11:00+22юз575567 0.0 10071322
14:00+24юз6748100 0.0 10071840
17:00+19юз61076100 0.3 1007531
20:00+16ююз3784100 0.6 1007193
2 августа, пн
пн223:00+14ююз239274 0.0 100767
02:00+13юз359598 0.0 100697
05:00+13зюз2496100 0.1 100673
08:00+18з3577100 0.1 1005355
11:00+20з6669100 0.5 10061036
14:00+20зсз6774100 3.1 10061076
17:00+20з6961100 0.7 10071441
20:00+17з410644 0.8 1007532
3 августа, вт
вт323:00+14юз413760 0.0 1007361
02:00+14юз5138182 0.3 1008442
05:00+13зюз489858 0.7 1009198
08:00+16зюз358667 0.8 1010231
11:00+21зсз57448 0.1 10111925
14:00+23зсз56375 0.1 10111902
17:00+22зсз453854 0.0 10121429
20:00+18зсз225241 0.0 101316
4 августа, ср
ср423:00+14вюв116198 0.0 101311
02:00+13вюв2266100 0.0 101327
05:00+12ююв3589100 0.0 101287
08:00+15ююз2881100 0.3 1013377
11:00+15вюв1394100 2.9 1013153
14:00+22юв565586 4.6 10111521
17:00+21ююз347065 1.8 1011995
20:00+16ююз3588100 3.3 101179